Location: Prague
(50.0830°N, 14.4670°E)
Time: 23:01:13
(UTC+01:00)

BEESAT 2 - Pass Details

Date: 08 December 2021
Orbit: 498 x 514 km, 64.9° (Epoch: 16 January)

Event Time Altitude Azimuth Distance (km) Brightness Sun altitude
Exits shadow 04:04:27 13° 97° (E) 1,557 ? -34.6°
Drops below altitude 10° 04:04:59 10° 101° (E) 1,742 ? -34.6°
Sets 04:07:20 0° 112° (ESE) 2,623 ? -34.2°
